map of CZL home
Great Circle Mapper logo
CZL - Airport
Location
City:  Constantine, Algeria
Name:Mohamed Boudiaf International Airport
ICAO / IATA:DABC / CZL

Details
Type:Airport (Aerodrome, Airfield)
Use:International (customs port of entry)
Latitude:3617'07"N (36.285278)
Longitude:637'09"E (6.619167)
Elevation:2316 ft (706 m)
Variation:1.4E (WMM2010 magnetic declination)
Runways:2
Longest:9843 × 148 ft (3000 × 45 m)

Time
Time Zone:UTC+1
Local Time:

Weather
METAR:DABC 242200Z 18006KT 9999 SCT040 SCT200 15/07 Q1023
TAF:DABC 241700Z 2418/2518 23008KT 9999 FEW040 BKN100 PROB30
TEMPO 2418/2424 7000 -RA SCT033TCU BKN040
BECMG 2422/2424 14004KT

Related Locations
Nearby:
Farthest:GIS: 11939 mi / 19214 km
Gisborne, NZ

Find:

   beyond  
but within

Other Information
Maps:
NOTAMs:
Links:
Sources:

  
flag of Algeria   

Sectional Chart

Flight Planning
at skyvector.com

Satellite Image

Google Maps Satellite View

 

Copyright © 2004-2014 Karl L. Swartz. All rights reserved.
The Great Circle Mapper name and logo are trademarks of the Great Circle Mapper.
All other trademarks mentioned herein belong to their respective owners.
Please see credits for attibutions and further copyright information.

  Follow gcmap on Facebook Follow gcmap on Twitter

hCard Microformat

Geo Microformat